Location: Buffalo
(50.8000°N, 110.6833°W)
Time: 06:10:33
(UTC+00:00)

Envisat - Visible Passes

Search period start: 28 November 2021 00:00
Search period end: 08 December 2021 00:00
Orbit: 764 x 766 km, 98.2° (Epoch: 27 November)

Date Brightness Start Highest point End Pass type
(mag) Time Alt. Az. Time Alt. Az. Time Alt. Az.
28 Nov 5.5 00:34:06 10° SW 00:38:11 24° W 00:42:16 10° NW visible
28 Nov 5.9 10:59:13 10° NE 11:01:41 13° E 11:04:09 10° ESE visible
28 Nov 3.0 12:36:23 10° NNE 12:41:31 84° ESE 12:46:36 10° SSW visible
28 Nov 4.3 14:16:29 10° NNW 14:19:55 19° NW 14:23:20 10° W visible
28 Nov 4.3 23:56:09 10° S 00:01:02 47° W 00:05:56 10° NNW visible
29 Nov 4.2 11:59:41 10° NNE 12:04:32 42° E 12:09:20 10° SSE visible
29 Nov 3.6 13:38:57 10° N 13:43:27 33° WNW 13:47:57 10° SW visible
30 Nov 6.0 01:00:58 10° WSW 01:03:49 15° W 01:06:40 10° NW visible
30 Nov 5.3 11:23:26 10° NE 11:27:21 22° E 11:31:14 10° SE visible
30 Nov 2.9 13:01:45 10° N 13:06:47 62° WNW 13:11:47 10° SSW visible
01 Dec 5.2 00:22:07 10° SSW 00:26:30 29° W 00:30:56 10° NNW visible
01 Dec 6.1 10:48:52 10° ENE 10:49:57 11° E 10:51:02 10° E visible
01 Dec 3.2 12:24:51 10° NNE 12:29:57 69° ESE 12:35:00 10° S visible
01 Dec 4.1 14:04:40 10° N 14:08:30 22° WNW 14:12:20 10° WSW visible
02 Dec 4.5 11:48:15 10° NNE 11:52:54 34° E 11:57:31 10° SSE visible
02 Dec 3.4 13:27:15 10° N 13:31:59 39° WNW 13:36:40 10° SW visible
03 Dec 5.8 00:48:38 10° SW 00:52:06 18° W 00:55:36 10° NW visible
03 Dec 5.6 11:12:14 10° NE 11:15:39 18° E 11:19:03 10° SE visible
03 Dec 2.9 12:50:10 10° NNE 12:55:16 76° WNW 13:00:20 10° SSW visible
04 Dec 4.8 00:10:13 10° SSW 00:14:52 36° W 00:19:33 10° NNW visible
04 Dec 3.6 12:13:20 10° NNE 12:18:21 56° E 12:23:20 10° S visible
04 Dec 3.9 13:52:55 10° N 13:57:04 26° WNW 14:01:13 10° WSW visible
05 Dec 6.3 01:16:24 10° W 01:17:47 11° W 01:19:13 10° WNW visible
05 Dec 4.9 11:36:52 10° NE 11:41:15 28° E 11:45:37 10° SSE visible
05 Dec 3.2 13:15:36 10° N 13:20:29 48° WNW 13:25:20 10° SW visible
06 Dec 5.6 00:36:28 10° SW 00:40:24 22° W 00:44:23 10° NW visible
06 Dec 5.8 11:01:12 10° NE 11:03:56 14° E 11:06:40 10° ESE visible
06 Dec 2.9 12:38:35 10° NNE 12:43:43 89° ESE 12:48:48 10° SSW visible
06 Dec 4.3 14:18:47 10° NNW 14:22:05 18° NW 14:25:22 10° W visible
06 Dec 4.4 23:58:24 10° S 00:03:15 44° W 00:08:07 10° NNW visible
07 Dec 4.0 12:01:51 10° NNE 12:06:45 45° E 12:11:36 10° S visible
07 Dec 3.7 13:41:11 10° N 13:45:37 31° WNW 13:50:02 10° WSW visible
